Main page
METAR-TAF:

METAR-TAF

Airports :

Zanjan, Iran

latitude: 36-41N, longitude: 048-29E, elevation: 1663 m

Current weather observation

The report was made 24 minutes ago, at 06:00 UTC
Calm wind
Temperature 13°C
Humidity 62%
Pressure 1025 hPa
Visibility 10 km or more
Few clouds at a height of 2500 ft
Scattered clouds at a height of 19000 ft

METAR: OITZ 230600Z 00000KT 9999 FEW025 SCT190 13/06 Q1025

Time: 09:54 (06:24 UTC)


TAF: missing

Weather observations and forecasts of more than 4000 airports (METAR and TAF reports).

The available stations are represented by yellow and red dots on the map.

Hover mouse over dot to see the name of the station.

Then click to see weather observations and forecasts.

To change the map : click on the green buttons with a black cross to zoom in, on the green button with a dash to zoom out, or on the green arrows for adjacent maps.


METAR-TAF: